Simultaneous Nadir Overpasses (SNOs) Predictions

Prediction of SNOs between GOES-14 and AQUA Satellite Orbit:

Table of predicted SNOs for the next 14.0 days since TLE Epoch: 9/21/2019
Index Date Time (GOES-14) GOES-14 Lat,Lon AQUA Lat,Lon Distance(km) Time Diff (sec)
1 09/21/2019 08:26:45 0.32,-104.21 0.09,-103.15 120.68 80
2 09/21/2019 20:48:09 -0.31,-104.26 -1.19,-108.34 464.52 80
3 09/23/2019 08:14:34 0.32,-104.20 -0.52,-100.19 455.19 80
4 09/23/2019 20:35:59 -0.31,-104.25 -0.53,-105.40 129.54 80
5 09/25/2019 20:26:28 -0.30,-104.25 0.08,-102.44 205.29 80
6 09/26/2019 08:47:43 0.29,-104.21 1.02,-107.59 385.15 80
7 09/28/2019 08:35:32 0.29,-104.20 0.41,-104.64 50.41 80
8 09/30/2019 08:20:41 0.29,-104.19 -0.21,-101.68 284.63 80
9 09/30/2019 20:42:07 -0.28,-104.21 -0.83,-106.89 304.43 80
10 10/02/2019 20:32:36 -0.28,-104.20 -0.20,-103.93 31.19 80
11 10/04/2019 20:20:25 -0.28,-104.20 0.43,-100.98 366.80 80




NCC Satellite Simultaneous Nadir Overpasses (SNOs) Prediction Service
